Regional Weather Roundup
Issued by NWS State College, PA

Home | Current Version | Previous Version | Graphics & Text | Print | Product List | Glossary On
Versions: 1 2 3 4 5 6 7 8 9 10 11 12 13 14 15 16 17 18 19 20 21 22 23 24 25 26 27 28 29 30 31 32 33 34 35 36 37 38 39 40 41 42 43 44 45 46 47 48 49 50
000
ASUS41 KCTP 030803
RWRCTP

REGIONAL WEATHER ROUNDUP
NATIONAL WEATHER SERVICE STATE COLLEGE PA
400 AM EDT TUE MAY 03 2016

Note: "fair" indicates few or no clouds below 12,000 feet with no
significant weather and/or obstructions to visibility.

* = STATION THAT DOES NOT REPORT PRECIPITATION /E.G. RAIN...SNOW...ETC/
    THUNDER OR FOG.

PAZ002>004-007>009-013>016-020>023-029>032-030900-
WESTERN PENNSYLVANIA

CITY           SKY/WX    TMP DP  RH WIND       PRES   REMARKS
ERIE           CLOUDY    44  41  89 CALM      29.93S FOG
MEADVILLE      CLOUDY    39  39 100 N6        29.89F FOG
FRANKLIN*      CLOUDY    45  41  87 N3        29.90F
NEW CASTLE     CLOUDY    44  42  93 NW5       29.90F
BEAVER COUNTY  NOT AVBL
BUTLER*        CLOUDY    48  43  81 CALM      29.90F
PITTSBURGH INT CLOUDY    49  43  80 NW7       29.87F
PITTSBURGH     CLOUDY    49  44  83 NW7       29.86S
INDIANA*       CLOUDY    52  50  93 NW3       29.89S
LATROBE        CLOUDY    54  54 100 NW5       29.87S
WASHINGTON CO* CLOUDY    48  45  87 N5        29.87F
$$

PAZ004>006-010>012-017>019-024>028-033>037-041-042-045-046-049>053-030900-
CENTRAL PENNSYLVANIA

CITY           SKY/WX    TMP DP  RH WIND       PRES   REMARKS
BRADFORD       CLOUDY    44  42  93 E5        29.87F FOG
DUBOIS         CLOUDY    49  46  90 N5        29.85F
CLEARFIELD     CLOUDY    52  47  83 E7        29.85F
JOHNSTOWN      FOG       52  49  89 W5        29.84S VSB 3/4
ALTOONA        CLOUDY    55  53  93 CALM      29.84F
STATE COLLEGE  CLOUDY    48  48  98 NE8       29.85F
WILLIAMSPORT   CLOUDY    49  46  90 CALM      29.87F
SELINSGROVE    CLOUDY    52  48  86 N5        29.87F
FT INDIANTOWN  CLOUDY    54  54 100 N5        29.84S
CAPITAL CITY   CLOUDY    59  55  87 NE9       29.82F FOG
HARRISBURG     CLOUDY    59  56  89 CALM      29.81F
YORK           CLOUDY    59  57  93 NE3       29.80F FOG
$$

PAZ038>040-043-044-047-048-054-055-060>062-067>071-030900-
EASTERN PENNSYLVANIA

CITY           SKY/WX    TMP DP  RH WIND       PRES   REMARKS
SCRANTON       LGT RAIN  49  47  93 CALM      29.86F FOG
MOUNT POCONO   LGT RAIN  47  44  90 CALM      29.85F
ALLENTOWN      LGT RAIN  53  50  89 NE8       29.86R
QUAKERTOWN*    CLOUDY    54  54 100 NE5       29.86S
READING        LGT RAIN  56  53  90 NE6       29.83S FOG
LANCASTER      LGT RAIN  57  56  96 NE5       29.82F FOG
COATESVILLE    LGT RAIN  55  55 100 E12G18    29.84F
POTTSTOWN      RAIN      55  55 100 E5        29.86R FOG
BLUE BELL      CLOUDY    54  54 100 E3        29.84S
DOYLESTOWN     LGT RAIN  54  54 100 CALM      29.85R FOG
WILLOW GROVE   NOT AVBL
NORTH PHILA    LGT RAIN  57  55  93 NE6       29.86R FOG
PHILADELPHIA   RAIN      57  54  89 E10       29.84S
$$




USA.gov is the U.S. government's official web portal to all federal, state and local government web resources and services.